Location: Blairvadach
(56.2780°N, 6.9720°W)
Time: 00:14:00
(UTC+00:00)

N. Korean satellite - Visible Passes

Search period start: 20 February 2019 00:00
Search period end: 02 March 2019 00:00
Orbit: 457 x 510 km, 97.2° (Epoch: 18 February)

Date Brightness Start Highest point End Pass type
(mag) Time Alt. Az. Time Alt. Az. Time Alt. Az.
20 Feb 9.1 06:08:03 10° NE 06:11:01 25° E 06:13:56 10° SSE visible
20 Feb 9.1 18:24:31 10° SSW 18:27:44 29° W 18:30:56 10° NNW visible
21 Feb 9.9 05:43:56 10° NE 05:46:03 15° E 05:48:07 10° SE visible
22 Feb 6.8 06:51:39 10° NNE 06:55:09 72° ESE 06:58:35 10° S visible
22 Feb 10.4 19:10:47 10° WSW 19:12:05 12° W 19:13:24 10° WNW visible
23 Feb 8.2 06:27:01 10° NNE 06:30:19 38° E 06:33:34 10° SSE visible
23 Feb 9.9 18:44:25 10° SW 18:47:05 19° W 18:49:44 10° NW visible
24 Feb 9.3 06:02:36 10° NE 06:05:24 22° E 06:08:10 10° SE visible
25 Feb 10.0 05:38:38 10° ENE 05:40:24 13° E 05:42:10 10° ESE visible
26 Feb 7.1 06:46:05 10° NNE 06:49:32 62° ESE 06:52:57 10° S visible
26 Feb 10.3 19:04:47 10° WSW 19:06:28 13° W 19:08:08 10° WNW visible
27 Feb 8.5 06:21:29 10° NNE 06:24:41 34° E 06:27:51 10° SSE visible
27 Feb 9.7 18:38:40 10° SW 18:41:27 21° W 18:44:14 10° NW visible
28 Feb 9.6 05:57:07 10° NE 05:59:44 20° E 06:02:21 10° SE visible
01 Mar 10.2 05:33:21 10° ENE 05:34:43 12° E 05:36:04 10° ESE visible
